This is the latest recevied weather packets stored in our database for station/object EA3IK-7. If no packets are shown the sender has not sent any weather packets the latest 10 day(s).
| Time | Temp. | Humidity | Pressure | Rain* | Wind** | Luminosity | Snow |
|---|---|---|---|---|---|---|---|
| 1777965611 | 13.33° C | 99% | 1008.3 hPa | - | - | - | - |
| 1777963945 | 13.33° C | 100% | 1008.6 hPa | - | - | - | - |
| 1777963811 | 13.33° C | 100% | 1008.6 hPa | - | - | - | - |
| 1777962011 | 13.33° C | 100% | 1008.7 hPa | - | - | - | - |
| 1777960211 | 12.78° C | 99% | 1008.7 hPa | - | - | - | - |
| 1777958412 | 12.78° C | 98% | 1008.6 hPa | - | - | - | - |
| 1777956613 | 12.78° C | 98% | 1008.6 hPa | - | - | - | - |
| 1777954810 | 13.33° C | 98% | 1008.6 hPa | - | - | - | - |
| 1777953011 | 13.33° C | 98% | 1008.7 hPa | - | - | - | - |
| 1777951210 | 13.33° C | 98% | 1008.7 hPa | - | - | - | - |
| 1777949410 | 13.89° C | 97% | 1008.7 hPa | - | - | - | - |
| 1777947610 | 13.89° C | 97% | 1008.7 hPa | - | - | - | - |
| 1777945810 | 13.89° C | 97% | 1008.6 hPa | - | - | - | - |
| 1777942210 | 14.44° C | 97% | 1008.7 hPa | - | - | - | - |
| 1777940410 | 14.44° C | 96% | 1008.8 hPa | - | - | - | - |
| 1777938610 | 15° C | 96% | 1008.8 hPa | - | - | - | - |
| 1777938610 | 15° C | 96% | 1008.8 hPa | - | - | - | - |
| 1777936818 | 15° C | 96% | 1008.9 hPa | - | - | - | - |
| 1777935010 | 15° C | 96% | 1008.7 hPa | - | - | - | - |
| 1777933210 | 15.56° C | 95% | 1008.6 hPa | - | - | - | - |
| 1777931410 | 15.56° C | 94% | 1008.4 hPa | - | - | - | - |
| 1777929610 | 16.11° C | 93% | 1008.7 hPa | - | - | - | - |
| 1777929610 | 16.11° C | 93% | 1008.7 hPa | - | - | - | - |
| 1777927810 | 16.67° C | 92% | 1008.8 hPa | - | - | - | - |
| 1777926010 | 16.67° C | 91% | 1008.7 hPa | - | - | - | - |
* Rain since midnight (hover to see other rain measurements)
** Current wind speed in m/s (hover to see current wind gust speed)